Location: Monrovia
(34.7865°N, 86.7139°W)
Time: 23:33:45
(UTC+00:00)

SL-16 R/B - Pass Details

Date: 14 July 2020
Orbit: 839 x 850 km, 71.0° (Epoch: 12 August)

Event Time Altitude Azimuth Distance (km) Brightness Sun altitude
Exits shadow 02:09:50 17° 119° (ESE) 2,007 3.5 -12.7°
Maximum altitude 02:11:15 19° 100° (E) 1,923 3.6 -12.9°
Drops below altitude 10° 02:15:03 10° 57° (ENE) 2,470 4.4 -13.5°
Sets 02:18:12 0° 40° (NE) 3,412 5.4 -14.0°
